User: anonymous   Login
Location: Unspecified
(0.0000°N, 0.0000°E)
Time: 22:26:26
(UTC+00:00)
Language:

DSP F6R - Orbit

View from above orbital plane
View from above orbital plane
View from above satellite
View from above satellite

Ground track
Ground track

The orbit data is extracted from the following two-line orbital elements,

1 15453U 84129A   24109.72688420  .00000041  00000-0  00000-0 0  9990
2 15453  12.7802 326.9048 0001617 179.2300  30.4468  0.98854455 18247
Epoch (UTC): 18 April 2024 17:26:42
Eccentricity: 0.0001617
inclination: 12.7802°
perigee height: 36181 km
apogee height: 36195 km
right ascension of ascending node: 326.9048°
argument of perigee: 179.2300°
revolutions per day: 0.98854455
mean anomaly at epoch: 30.4468°
orbit number at epoch: 1824

The dashed part of the orbit path shows where the satellite is in the earth's shadow,  

DLR